ITASat 1
1 43786U 18099AE 20324.14528816 .00000788 00000-0 76332-4 0 9999
2 43786 097.6928 033.2398 0015980 039.0894 321.1478 14.95422029107052
EAGLET 1
1 43790U 18099AJ 20324.76693612 .00000188 00000-0 21990-4 0 9993
2 43790 97.6920 34.1734 0014472 41.2277 319.0034 14.95805872106861
ESEO
1 43792U 18099AL 20324.79073775 -.00000020 00000-0 33395-5 0 9999
2 43792 97.6885 33.9368 0014077 38.0634 322.1579 14.95644109106925
CSIM
1 43793U 18099AM 20324.78279565 .00000320 00000-0 33403-4 0 9995
2 43793 97.6896 34.0326 0013498 34.9952 325.2154 14.96226102106910
Astrocast 0.1
1 43798U 18099AS 20324.74029357 .00000715 00000-0 68865-4 0 9996
2 43798 97.6917 34.2798 0012732 22.7085 337.4697 14.95955388107165
JO-97
1 43803U 18099AX 20324.74272903 .00000859 00000-0 82351-4 0 9995
2 43803 97.6889 33.6107 0015848 37.4234 322.8088 14.95620908107144
Suomi 100
1 43804U 18099AY 20324.74496352 .00000865 00000-0 82879-4 0 9994
2 43804 97.6887 33.5939 0015942 37.4769 322.7560 14.95604629107150
Al Farabi 2
1 43805U 18099AZ 20324.17024315 .00000673 00000-0 65432-4 0 9991
2 43805 97.6908 33.1628 0016160 39.5059 320.7342 14.95759626107079
PWSat 2
1 43814U 18099BJ 20324.44389930 .00068489 00000-0 28031-2 0 9999
2 43814 97.7927 49.4095 0002833 288.3717 71.7210 15.24045331107213
CHOMPTT
1 43855U 18104G 20324.02841803 .00001850 00000-0 76095-4 0 9991
2 43855 85.0384 72.9069 0016717 195.6425 164.4304 15.23282665107057
ISAT
1 43879U 18111D 20324.71098368 .00001167 00000-0 10796-3 0 9997
2 43879 97.6932 229.5528 0014861 84.6070 275.6842 14.96374795101682
UWE-4
1 43880U 18111E 20324.73271795 .00000263 00000-0 28161-4 0 9990
2 43880 97.6941 229.9286 0013572 86.1862 274.0911 14.96608866101716
Sparrow
1 43881U 18111F 20324.71058473 .00000378 00000-0 38112-4 0 9999
2 43881 97.6956 230.0016 0014129 83.6601 276.6230 14.96659246101719
Lume 1
1 43908U 18111AJ 20324.34264452 .00001857 00000-0 75949-4 0 9996
2 43908 97.2503 219.5934 0019958 319.6177 40.3579 15.25403512105632
FO-98
1 43933U 19003B 20324.13259797 .00001039 00000-0 47758-4 0 9997
2 43933 97.2107 7.7940 0019228 59.9527 300.3614 15.22354664102060
FO-99
1 43937U 19003F 20324.12815409 .00001859 00000-0 77138-4 0 9993
2 43937 97.2071 9.4876 0024841 40.9877 319.3223 15.24799580102200
Delphini 1
1 44030U 98067PW 20324.81178022 .00057465 00000-0 37567-3 0 9999
2 44030 51.6310 242.0045 0000778 86.4817 273.6271 15.75251045102918
MYSat 1
1 44045U 18092F 20323.86554272 .00004272 00000-0 12411-3 0 9993
2 44045 51.6399 12.0833 0010945 160.1967 199.9443 15.37645898 99034
AstroCast 0.2
1 44083U 19018F 20324.67475870 .00001036 00000-0 48570-4 0 9991
2 44083 97.4028 23.4298 0012795 355.5827 4.5294 15.21859256 90982
AISTechSat 3
1 44103U 19018AB 20324.73058797 .00001242 00000-0 54984-4 0 9991
2 44103 97.3905 23.7515 0013719 8.7856 109.1240 15.23443048 91073
AISat 1
1 44104U 19018AC 20324.44470382 .00001228 00000-0 41151-4 0 9994
2 44104 97.4490 34.9791 0058323 23.8706 336.5219 15.31368091 91521
Raavana-1
1 44329U 98067QE 20324.13940159 .00023827 00000-0 27282-3 0 9991
2 44329 51.6386 276.7993 0004051 203.2917 156.7894 15.61990058 81148
Uguisu
1 44330U 98067QF 20324.35424853 .00023136 00000-0 26641-3 0 9996
2 44330 51.6361 275.9427 0004034 203.5747 156.5062 15.61862984 81153
NepaliSat-1
1 44331U 98067QG 20324.57831007 .00021198 00000-0 24322-3 0 9994
2 44331 51.6362 274.4409 0004026 207.9488 152.1291 15.62015559 81201
Prox-1
1 44339U 19036A 20324.06110861 .00001049 00000-0 19846-3 0 9991
2 44339 23.9993 218.9080 0010570 43.4533 316.6790 14.53218659 74628
Oculus-ASR
1 44348U 19036K 20324.02671734 .00022044 00000-0 32169-3 0 9999
2 44348 028.5149 087.5053 0355205 159.9413 201.5530 15.05577198077091
Armadillo
1 44352U 19036P 20324.62607299 .00031403 00000-0 44691-3 0 9997
2 44352 28.5310 74.3756 0337051 180.0807 179.9765 15.09800506 77220
NO-104
1 44354U 19036R 20324.64246001 .00021469 00000-0 30681-3 0 9996
2 44354 28.5301 79.2598 0351260 171.8525 188.7960 15.06791350 77210
NO-103
1 44355U 19036S 20323.96222341 .00043522 00000-0 57119-3 0 9991
2 44355 28.5305 64.8521 0317641 195.2457 163.8373 15.15391974 77300
CP9
1 44360U 19036X 20324.51237630 .00068903 -54338-5 70451-3 0 9999
2 44360 28.5151 32.8755 0283053 248.4898 108.5299 15.26981734 77548
Move-IIb
1 44398U 19038N 20324.42808852 .00002281 00000-0 13308-3 0 9998
2 44398 97.5550 283.8790 0024081 317.5435 42.3933 15.12752790 76007
SONATE
1 44400U 19038Q 20324.44356690 .00000703 00000-0 44368-4 0 9990
2 44400 97.5603 283.8895 0023991 315.9096 44.0217 15.12142038 75999
BeeSat 9
1 44412U 19038AC 20323.88879440 .00001628 00000-0 96601-4 0 9997
2 44412 97.5595 283.4842 0021638 323.3739 36.6011 15.12600683 75616
JAISAT-1
1 44419U 19038F 20323.85972809 .00001589 00000-0 93176-4 0 9994
2 44419 97.5599 283.8375 0020426 322.4436 37.5367 15.13085145 75941
LightSail-2
1 44420U 19036AC 20324.38207846 .00005605 00000-0 11674-2 0 9999
2 44420 24.0063 207.7531 0009555 49.7611 310.3716 14.57307627 72910
Taurus 1
1 44530U 19059C 20324.70464023 .00001008 00000-0 29682-3 0 9996
2 44530 98.5630 47.2494 0014801 60.5013 299.7667 14.45760990 62771
Duchifat 3
1 44854U 19089C 20324.15293766 .00000644 00000-0 58264-4 0 9995
2 44854 36.9672 264.0344 0009094 240.0844 119.8995 14.99201086 51522
OPS-SAT
1 44878U 19092F 20324.45419948 .00001707 00000-0 92648-4 0 9995
2 44878 97.4695 145.1663 0014028 173.2379 186.9045 15.15811046 51018
TO-108
1 44881U 19093C 20324.67728362 -.00000138 00000-0 -10812-4 0 9999
2 44881 97.9461 39.5699 0013462 252.2701 107.7047 14.81407927 49674
FloripaSat 1
1 44885U 19093G 20324.67436149 .00000408 00000-0 57924-4 0 9995
2 44885 97.9466 39.8705 0013446 262.9997 96.9687 14.82121851 49692
RS-44
1 44909U 19096E 20324.08142299 .00000029 00000-0 77181-4 0 9996
2 44909 82.5224 252.5567 0216489 224.8162 133.5277 12.79708007 41967
SwampSat-2
1 45115U 19071E 20324.29876904 .00022951 00000-0 58824-3 0 9999
2 45115 51.6410 330.6588 0010017 263.7310 96.2533 15.39217180 44934
HO-107
1 45119U 19071J 20324.07242060 .00002600 00000-0 88473-4 0 9992
2 45119 51.6426 335.8283 0011343 250.9616 109.0138 15.34231266 44855
Phoenix
1 45258U 98067RB 20323.96628016 .00008180 00000-0 13847-3 0 9995
2 45258 51.6412 298.8924 0005444 185.0394 175.0543 15.52496107 42465
AztechSat-1
1 45261U 98067RE 20324.15704881 .00017664 00000-0 26449-3 0 9995
2 45261 51.6404 295.6788 0006059 203.1928 156.8791 15.55035458 42543
QARMAN
1 45263U 98067RG 20324.14951048 .00014443 00000-0 22740-3 0 9997
2 45263 51.6409 297.1250 0005912 199.9886 160.0873 15.53823825 42564
Quetzal 1
1 45598U 98067RL 20324.83192480 .00012552 00000-0 20649-3 0 9996
2 45598 51.6417 295.6866 0001951 328.4079 31.6794 15.52749972 31913
BY70-2
1 45857U 20042B 20324.73219276 .00001283 00000-0 19161-3 0 9990
2 45857 98.0035 36.5589 0012077 163.5381 196.6222 14.76448088 20590
UPMSat 2
1 46276U 20061E 20324.16849286 .00000689 00000-0 39157-4 0 9991
2 46276 97.4565 35.9405 0002315 54.2840 305.8608 15.16126317 11671
AmicalSat
1 46287U 20061R 20324.14778416 .00001037 00000-0 67588-4 0 9994
2 46287 97.5116 35.8074 0004313 97.9711 262.2008 15.10044225 11602
SALSAT
1 46495U 20068K 20324.26754532 .00000151 00000-0 15670-4 0 9999
2 46495 097.6735 257.2811 0019103 064.4013 295.9179 15.03256260007756
Bobcat-1
1 46921U 98067RR 20324.14759426 .00008383 00000-0 15287-3 0 9999
2 46921 051.6436 301.6061 0002919 030.0649 330.0508 15.50342909002198
